www.pogodaiklimat.ru

Погода и климат >> Архив погоды >> Россия >> Якутия >> Черский


ПОГОДА в Черском

  • Прогноз погоды в Черском
  • Монитор погоды в Черском
  • Климат города

АРХИВ ПОГОДЫ в Черском

Время (UTC), дата Ветер
(напр.,м/с)
 
Видим.   Явления Облачность Т
(С)
Тd
(С)
f
(%)
Тe
(С)
Тes
(С)
Комфортность P
(гПа)
Po
(гПа)
Тmin
(С)
Tmax
(С)
R
(мм)
R24
(мм)
S
(см)
03 10.12 ЮВ 2 20 км 8/0
[Ac As]
-28.6 -31.6 75 -36 -36 опасность
обморожения
1029.4 1025.8
06 10.12 ЮВ 2 4000 м 10/10 300 м
[Sc]
-26.3 -29.4 75 -33 -33 опасность
обморожения
1029.7 1026.1
09 10.12 ЮВ 2 4000 м слабый снег 10/10 300 м
[Sc]
-25.8 -28.2 80 -33 -33 опасность
обморожения
1031.5 1027.9 -25.8 0.6
12 10.12 ЮВ 2 4000 м слабый снег 10/10 300 м
[Sc]
-24.3 -27.6 74 -31 -31 опасность
обморожения
1033.0 1029.4
15 10.12 ЮВ 2 4000 м слабый снег 10/10 270 м
[Sc]
-23.8 -27.0 75 -30 -30 1033.6 1030.0
18 10.12 ЮВ 2 4000 м слабый снег 10/10 660 м
[Sc]
-24.5 -27.0 80 -31 -31 опасность
обморожения
1035.8 1032.3
21 10.12 ЮВ 1 4000 м слабый снег 10/10 300 м
[Sc]
-23.9 -27.1 75 -27 -27 1037.6 1034.0 -25.9 0.3 54
00 11.12 ЮВ 1 4000 м слабый снег 10/10 270 м
[Sc]
-23.8 -25.6 85 -27 -27 1038.7 1035.1
03 11.12 ЮВ 1 10 км слабый снег 10/10 330 м
[Sc]
-23.6 -25.5 84 -27 -27 1039.6 1036.0
06 11.12 СЗ 4 4000 м слабый снег {метель} 10/10 300 м
[Sc]
-22.5 -24.3 85 -32 -32 опасность
обморожения
1040.8 1037.3
09 11.12 СЗ 2 4000 м слабый снег {метель} 10/10 1410 м
[Sc]
-24.2 -26.0 85 -31 -31 опасность
обморожения
1042.0 1038.4 -21.4 1
12 11.12 З 2 4000 м слабый снег {метель} 10/10 450 м
[Sc]
-25.0 -27.4 80 -32 -32 опасность
обморожения
1042.3 1038.7
15 11.12 З 2 4000 м слабый снег 10/10 600 м
[Sc]
-25.7 -28.1 80 -32 -32 опасность
обморожения
1041.5 1037.9
18 11.12 ЮЗ 1 4000 м слабый снег 10/10 450 м
[Sc]
-26.0 -28.4 80 -30 -30 1041.5 1037.9
21 11.12 штиль 0 4000 м слабый снег 10/8 400 м
[Sc]
-26.8 -29.3 79 -27 -27 1041.7 1038.1 -26.8 0.2 54
00 12.12 ЮВ 2 10 км слабый снег 10/4 480 м
[Sc As op]
-26.6 -28.3 85 -34 -34 опасность
обморожения
1041.5 1037.9 -27.3
03 12.12 ЮВ 2 20 км слабый снег 8/5 720 м
[Sc As op]
-27.0 -29.4 80 -34 -34 опасность
обморожения
1040.9 1037.3
06 12.12 В 2 4000 м слабый снег 10/6 630 м
[Sc As op]
-26.3 -28.7 80 -33 -33 опасность
обморожения
1040.4 1036.8
09 12.12 ЮВ 1 4000 м слабый снег 10/8 360 м
[Sc As op]
-25.5 -28.0 79 -29 -29 1039.7 1036.1 -25.5 0.4
12 12.12 В 1 4000 м слабый снег 10/10 330 м
[Sc]
-25.5 -27.3 85 -29 -29 1039.6 1036.0
15 12.12 штиль 0 4000 м слабый снег 10/10 270 м
[Sc]
-25.7 -27.4 86 -26 -26 1038.9 1035.3
18 12.12 штиль 0 4000 м слабый снег 10/10 330 м
[Sc]
-24.9 -26.7 85 -25 -25 1038.3 1034.7
21 12.12 СЗ 4 4000 м слабый снег {метель} 10/9 330 м
[Sc Ac As]
-24.0 -25.8 85 -34 -34 опасность
обморожения
1036.8 1033.2 -27.3 0.4 54
00 13.12 СЗ 3 10 км слабый снег {метель} 10/10 210 м
[St]
-25.4 -27.2 85 -34 -34 опасность
обморожения
1035.7 1032.1 -25.4
03 13.12 СЗ 4 10 км слабый снег {метель} 10/10 180 м
[St]
-25.2 -27.0 85 -35 -35 опасность
обморожения
1034.1 1030.5
06 13.12 СЗ 3 1000 м снег {метель} 10/10 210 м
[St]
-24.9 -26.7 85 -33 -33 опасность
обморожения
1032.4 1028.8
09 13.12 СЗ 4 1000 м снег {метель} 10/10 120 м
[St]
-22.2 -24.0 85 -32 -32 опасность
обморожения
1030.1 1026.6 -22.2 2
12 13.12 С 4 1000 м снег {метель} 10/8 120 м
[St As op]
-20.3 -22.8 80 -29 -29 1028.1 1024.6
15 13.12 СЗ 4 4000 м слабый снег {метель} 10/10 400 м
[Sc]
-20.5 -23.6 76 -30 -30 1025.0 1021.5
18 13.12 С 5-10
{11}
1000 м снег {метель} 10/10 360 м
[Sc]
-20.6 -23.1 80 -31 -31 опасность
обморожения
1022.4 1018.9
21 13.12 С 3
{12}
1000 м слабый снег {метель} 10/8 360 м
[Sc As op]
-19.8 -22.4 80 -27 -27 1020.9 1017.4 -22.2 4 56
00 14.12 С 3 10 км слабый снег {метель} 10/10 300 м
[Sc]
-18.8 -21.4 80 -26 -26 1018.4 1015.0
03 14.12 С 2 20 км слабый снег 9/3 300 м
[Sc Ac As]
-19.0 -21.6 80 -25 -25 1015.9 1012.5
06 14.12 СЗ 1 4000 м снег 10/10 360 м
[Sc]
-17.4 -19.3 85 -20 -20 1014.2 1010.8
09 14.12 С 4 4000 м снег 10/4 300 м
[Sc Ac As]
-16.4 -18.3 85 -25 -25 1012.2 1008.8 -16.4 0.9
12 14.12 С 4 4000 м слабый снег 10/0
[Ac As]
-13.6 -14.9 90 -21 -21 1010.3 1007.0
15 14.12 С 2 1000 м снег 10/10 360 м
[Sc]
-12.2 -13.5 90 -17 -17 1008.9 1005.6
18 14.12 В 3 4000 м слабый снег {метель} 10/10 330 м
[Sc]
-19.4 -21.3 85 -27 -27 1009.6 1006.2
21 14.12 ЮВ 4 4000 м слабый снег {метель} 10/10 300 м
[Sc]
-21.9 -23.1 90 -31 -31 опасность
обморожения
1010.2 1006.8 -21.9 2 59
00 15.12 ЮВ 3 20 км {снег, метель} 8/0
[Ac As]
-22.2 -24.0 85 -30 -30 1011.3 1007.8 -22.2
03 15.12 ЮВ 4 10 км слабый снег 10/10 300 м
[Sc]
-22.1 -24.0 84 -32 -32 опасность
обморожения
1011.6 1008.1
06 15.12 ЮВ 2 4000 м слабый снег 10/10 300 м
[Sc]
-22.0 -23.8 85 -28 -28 1012.5 1009.0
09 15.12 В 1 4000 м слабый снег 10/10 300 м
[Sc]
-22.7 -24.5 85 -26 -26 1012.9 1009.4 -21.9 0.5
12 15.12 С 1 4000 м слабый снег 10/10 900 м
[Sc]
-21.0 -23.5 80 -24 -24 1012.8 1009.4
15 15.12 СЗ 1 4000 м слабый снег 10/10 960 м
[Sc]
-22.8 -25.3 80 -26 -26 1012.5 1009.1
18 15.12 В 1 4000 м {снег} 10/0
[Ac As]
-21.8 -24.3 80 -25 -25 1011.5 1008.0
21 15.12 С 2 4000 м 10/0
[Ac As]
-16.3 -18.9 80 -22 -22 1011.6 1008.2 -22.8 0.5 59
00 16.12 СВ 2 20 км 8/0
[Ac As]
-18.1 -20.0 85 -24 -24 1011.9 1008.5
03 16.12 СВ 3 20 км 8/0
[Ac As]
-15.0 -18.4 75 -22 -22 1011.4 1008.0
06 16.12 СВ 3 4000 м слабый снег 6/0
[Ac As]
-16.1 -19.5 75 -23 -23 1011.1 1007.7
09 16.12 С 2 4000 м слабый снег 10/0
[Ac As]
-16.6 -18.5 85 -22 -22 1011.3 1007.9 -14.6 0.0
12 16.12 С 2 4000 м слабый снег 8/0
[Ac As]
-15.6 -18.3 80 -21 -21 1011.3 1007.9
15 16.12 СВ 8-11
{13}
4000 м слабый снег {метель} 10/0
[As op]
-17.0 -18.9 85 -29 -29 1013.4 1011.8
18 16.12 СВ 1 4000 м {снег} 10/0
[Ac As]
-16.1 -18.7 80 -19 -19 1011.4 1008.0
21 16.12 ЮВ 2 4000 м 10/0
[Ac As]
-21.4 -23.9 80 -27 -27 1011.5 1008.0 -21.4 0.0 59

 

Местоположение метеостанции Черский (Якутия, Россия): широта 68.73 долгота 161.30 высота над уровнем моря 28 м.

В архиве по умолчанию представлена погода в Черском за последнюю неделю. Архивные данные за месяц целиком и за предыдущие месяцы, начиная с января 2011 года, Вы можете получить, выбрав интересующий диапазон дат из раскрывающегося списка и нажав кнопку "Ввод!".

Внимание! Время в таблицах - всемирное. Для получения местного времени необходимо прибавить поправку, которая в Черском равна 11 ч.

Смотрите также архив погоды в соседних городах и на ближайших метеорологических станциях:

Погода в Анюйске (Чукотка, Россия) (43 км)
Погода в Константиновской (Чукотка, Россия) (65 км)
Погода в Бухте Амбарчик (Чукотка, Россия) (107 км)
Погода в Колымской (Якутия, Россия) (109 км)
Погода на Островном (Чукотка, Россия) (133 км)
Погода в Билибино (Чукотка, Россия) (222 км)
Погода в Раучуе (Чукотка, Россия) (223 км)
Погода в Баимке (Чукотка, Россия) (274 км)
Погода в Андрюшкино (Якутия, Россия) (276 км)
Погода на Айон Острове (Чукотка, Россия) (291 км)

Пояснения к столбцам:

Ветер - указаны скорость ветра в м/с - средняя за 10 мин, порывы в срок и между сроками (в фигурных скобках) и направление, откуда дует ветер: С - северный, СВ - северо-восточный, В - восточный, ЮВ - юго-восточный, Ю - южный, ЮЗ - юго-западный, З - западный, СЗ - северо-западный.
Видимость - горизонтальная дальность видимости в метрах или километрах. При видимости от 1 до 10 км при отсутствии осадков обычно наблюдается дымка, при ухудшении видимости до 1 км и менее - туман. В сухую погоду видимость может ухудшаться дымом, пылью или мглою.
Явления - указаны атмосферные явления, наблюдавшиеся в срок или в последний час перед сроком; фигурными скобками обозначены явления, наблюдавшиеся между сроками (за 1-3 часа до срока); квадратными скобками обозначены град или гололедные отложения с указанием их диаметра в мм.
Облачность - указаны через наклонную черту общая и нижняя облачность в баллах и высота нижней границы облаков в метрах; квадратными скобками обозначены формы облаков: Ci - перистые, Cs - перисто-слоистые, Cc - перисто-кучевые, Ac - высококучевые, As - высокослоистые, Sc - слоисто-кучевые, Ns - слоисто-дождевые, Cu - кучевые, Cb - кучево-дождевые. Подробнее классификацию облаков см. в Атласе облаков (PDF).
T - Температура воздуха - температура, измеренная на высоте 2 м над землей.
Td - Температура точки росы - температура, при понижении до которой содержащийся в воздухе водяной пар достигнет насыщения.
f - Относительная влажность воздуха - влажноcть воздуха, измеренная на высоте 2 м над землей.
Te - Эффективная температура - температура, которую ощущает одетый по сезону человек в тени. Характеристика душности погоды. При расчете учитывается влияние влажности воздуха и скорости ветра на теплоощущения человека.
Tes - Эффективная температура на солнце - температура, которую ощущает человек, с поправкой на солнечный нагрев. Характеристика знойности погоды. Зависит от высоты солнца над горизонтом, облачности и скорости ветра. Ночью, в пасмурную погоду, а также при ветре 12 м/с и более поправка равна нулю.
P - Атмосферное давление - приведенное к уровню моря атмосферное давление.
Po - Атмосферное давление - измеренное на уровне метеостанции атмосферное давление.
Tmin - Минимальная температура - минимум температуры воздуха на высоте 2 м над землей.
Tmax - Максимальная температура - максимум температуры воздуха на высоте 2 м над землей.
R - Количество осадков - Количество выпавших осадков за период времени, мм. При наведении курсора мыши на число - период времени, за который выпало указанное количество осадков.
R24 - Количество осадков - Количество выпавших осадков за 24 часа, мм.
S - Снежный покров - Высота снежного покрова, см. При наведении курсора мыши на число - состояние снежного покрова и степень покрытия местности в баллах.